Voltar ao catálogo

STARLINK-35009

AtivoComunicaçõesSSO
NORAD 65449·PAYLOAD·🇺🇸 United States

Lançado Sep 3, 2025 de Vandenberg Space Force Base

Loading…

Próximas Passagens (próximas 24 horas)

TLE

AtualizadoSource: CelesTrak SupGP

Época: Sep 14, 2026, 21:25 UTC

1 65449C 25194R   26257.89284722  .00061045  00000+0  18957-2 0  2577
2 65449  97.2845 107.5693 0001678  91.8645 320.7129 15.33395057    17

Acompanhe STARLINK-35009 em tempo real com AllMySat

Download on the App Store